Weather History for Price, UT

Change the Weather History Date:

Friday, December 7, 2012

  Actual Average Record
Temperature  
Mean Temperature 38 °F -  
Max Temperature 48 °F 35 °F 49 °F (1989)
Min Temperature 24 °F 17 °F 3 °F (2005)
Degree Days  
Heating Degree Days 28    
Moisture  
Dew Point 18 °F    
Average Humidity 49    
Maximum Humidity 67    
Minimum Humidity 28    
Precipitation  
Precipitation 0.00 in - - ()
Sea Level Pressure  
Sea Level Pressure 30.02 in    
Wind  
Wind Speed 6 mph (NNW)    
Max Wind Speed 15 mph    
Max Gust Speed 26 mph    
Visibility 10 miles    
Events      
Averages and records for this station are not official NWS values.
T = Trace of Precipitation, MM = Missing Value Source: NWS Daily Summary

Daily Weather History Graph

Daily Weather History Graph

Search for Another Location

Airport:

Trip Planner

Search our weather history database for the weather conditions in past years. The results will help you decide how hot, cold, wet, or windy it might be!

Date:

Astronomy

Dec. 07, 2012 Rise Set
Actual Time 7:30 AM MST 4:58 PM MST
Civil Twilight 7:00 AM MST 5:28 PM MST
Nautical Twilight 6:26 AM MST 6:02 PM MST
Astronomical Twilight 5:54 AM MST 6:35 PM MST
Moon 12:54 AM MST (12/7) 12:56 PM MST (12/7)
Length of Visible Light 10h 28m
Length of Day
9h 28m
Last Quarter, 38% of the Moon is Illuminated
Dec 7
Last Quarter
Dec 13
New
Dec 19
First Quarter
Dec 28
Full
Jan 4
Last Quarter

Hourly Weather History & Observations

Time (MST) Temp. Windchill Dew Point Humidity Pressure Visibility Wind Dir Wind Speed Gust Speed Precip Events Conditions
12:53 AM 34.0 °F - 24.1 °F 67% 29.98 in 10.0 mi Calm Calm - N/A   Overcast
1:53 AM 37.0 °F - 25.0 °F 62% 29.94 in 10.0 mi Calm Calm - N/A   Overcast
2:53 AM 32.0 °F 27.5 °F 21.9 °F 66% 29.96 in 10.0 mi NE 4.6 mph - N/A   Clear
3:53 AM 34.0 °F 28.0 °F 24.1 °F 67% 29.96 in 10.0 mi North 6.9 mph - N/A   Overcast
5:53 AM 34.0 °F 31.0 °F 24.1 °F 67% 30.00 in 10.0 mi NNE 3.5 mph - N/A   Mostly Cloudy
6:53 AM 32.0 °F 28.7 °F 21.9 °F 66% 30.04 in 10.0 mi NNW 3.5 mph - N/A   Partly Cloudy
7:53 AM 33.1 °F 26.1 °F 21.0 °F 61% 30.06 in 10.0 mi North 8.1 mph - N/A   Clear
8:53 AM 41.0 °F 33.9 °F 21.0 °F 45% 30.04 in 10.0 mi NNW 12.7 mph - N/A   Clear
9:53 AM 42.1 °F 35.2 °F 18.0 °F 38% 30.05 in 10.0 mi NNW 12.7 mph - N/A   Clear
10:53 AM 45.0 °F - 17.1 °F 33% 30.05 in 10.0 mi Calm Calm - N/A   Clear
11:53 AM 48.0 °F - 16.0 °F 28% 30.02 in 10.0 mi WNW 12.7 mph 20.7 mph N/A   Mostly Cloudy
12:53 PM 46.9 °F - 17.1 °F 30% 30.02 in 10.0 mi NW 13.8 mph - N/A   Partly Cloudy
1:53 PM 46.9 °F - 17.1 °F 30% 29.99 in 10.0 mi WNW 11.5 mph - N/A   Partly Cloudy
2:53 PM 46.0 °F 40.6 °F 14.0 °F 28% 30.00 in 10.0 mi WNW 11.5 mph 26.5 mph N/A   Clear
3:53 PM 45.0 °F 38.2 °F 15.1 °F 30% 30.00 in 10.0 mi WNW 15.0 mph 21.9 mph N/A   Clear
4:53 PM 41.0 °F 34.7 °F 15.1 °F 35% 30.02 in 10.0 mi West 10.4 mph 21.9 mph N/A   Clear
5:53 PM 34.0 °F 31.0 °F 12.9 °F 42% 30.06 in 10.0 mi NNE 3.5 mph - N/A   Clear
6:53 PM 30.9 °F 23.5 °F 14.0 °F 50% 30.09 in 10.0 mi North 8.1 mph - N/A   Clear
7:53 PM 30.9 °F 23.5 °F 15.1 °F 52% 30.08 in 10.0 mi NNE 8.1 mph - N/A   Clear
8:53 PM 28.9 °F 20.4 °F 14.0 °F 54% 30.05 in 10.0 mi NNE 9.2 mph - N/A   Clear
9:53 PM 28.0 °F 19.3 °F 14.0 °F 56% 30.05 in 10.0 mi NNE 9.2 mph - N/A   Clear
10:53 PM 27.0 °F 23.0 °F 14.0 °F 58% 30.03 in 10.0 mi SW 3.5 mph - N/A   Clear
11:53 PM 24.1 °F 15.2 °F 12.9 °F 62% 30.01 in 10.0 mi North 8.1 mph - N/A   Clear